TimeCST,TemperatureF,Dew PointF,Humidity,Sea Level PressureIn,VisibilityMPH,Wind Direction,Wind SpeedMPH,Gust SpeedMPH,PrecipitationIn,Events,Conditions,WindDirDegrees,DateUTC
12:15 AM,33.8,32.0,93,30.36,10.0,Calm,Calm,-,N/A,,Clear,0,2013-01-07 06:15:00
12:35 AM,35.6,32.0,87,30.36,10.0,Calm,Calm,-,N/A,,Clear,0,2013-01-07 06:35:00
12:55 AM,35.6,32.0,87,30.36,10.0,Calm,Calm,-,N/A,,Clear,0,2013-01-07 06:55:00
1:15 AM,33.8,32.0,93,30.35,10.0,Calm,Calm,-,N/A,,Clear,0,2013-01-07 07:15:00
1:35 AM,33.8,32.0,93,30.35,10.0,Calm,Calm,-,N/A,,Clear,0,2013-01-07 07:35:00
1:55 AM,32.0,32.0,100,30.35,10.0,Calm,Calm,-,N/A,,Clear,0,2013-01-07 07:55:00
2:15 AM,32.0,32.0,100,30.34,10.0,Calm,Calm,-,N/A,,Clear,0,2013-01-07 08:15:00
2:35 AM,32.0,32.0,100,30.34,10.0,Calm,Calm,-,N/A,,Clear,0,2013-01-07 08:35:00
2:55 AM,32.0,30.2,93,30.33,10.0,Calm,Calm,-,N/A,,Clear,0,2013-01-07 08:55:00
3:15 AM,32.0,30.2,93,30.34,10.0,Calm,Calm,-,N/A,,Clear,0,2013-01-07 09:15:00
3:35 AM,32.0,30.2,93,30.34,10.0,Calm,Calm,-,N/A,,Clear,0,2013-01-07 09:35:00
3:55 AM,32.0,30.2,93,30.34,10.0,Calm,Calm,-,N/A,,Clear,0,2013-01-07 09:55:00
4:15 AM,32.0,30.2,93,30.33,10.0,Calm,Calm,-,N/A,,Clear,0,2013-01-07 10:15:00
4:35 AM,32.0,30.2,93,30.33,10.0,Calm,Calm,-,N/A,,Clear,0,2013-01-07 10:35:00
4:55 AM,32.0,30.2,93,30.33,10.0,Calm,Calm,-,N/A,,Clear,0,2013-01-07 10:55:00
5:15 AM,32.0,30.2,93,30.33,10.0,Calm,Calm,-,N/A,,Clear,0,2013-01-07 11:15:00
5:35 AM,30.2,28.4,93,30.33,10.0,Calm,Calm,-,N/A,,Clear,0,2013-01-07 11:35:00
5:55 AM,30.2,30.2,100,30.33,10.0,Calm,Calm,-,N/A,,Clear,0,2013-01-07 11:55:00
6:35 AM,30.2,28.4,93,30.34,10.0,Calm,Calm,-,N/A,,Clear,0,2013-01-07 12:35:00
6:55 AM,30.2,28.4,93,30.35,10.0,Calm,Calm,-,N/A,,Clear,0,2013-01-07 12:55:00
7:15 AM,30.2,30.2,100,30.35,7.0,Calm,Calm,-,N/A,,Clear,0,2013-01-07 13:15:00
7:35 AM,30.2,28.4,93,30.36,9.0,Calm,Calm,-,N/A,,Clear,0,2013-01-07 13:35:00
7:55 AM,30.2,30.2,100,30.36,7.0,Calm,Calm,-,N/A,,Clear,0,2013-01-07 13:55:00
8:15 AM,33.8,32.0,93,30.36,8.0,Calm,Calm,-,N/A,,Clear,0,2013-01-07 14:15:00
8:35 AM,35.6,33.8,93,30.35,10.0,Calm,Calm,-,N/A,,Clear,0,2013-01-07 14:35:00
8:55 AM,42.8,37.4,81,30.36,10.0,East,3.5,-,N/A,,Clear,80,2013-01-07 14:55:00
9:15 AM,42.8,37.4,81,30.37,10.0,East,5.8,-,N/A,,Clear,90,2013-01-07 15:15:00
9:35 AM,44.6,37.4,76,30.37,10.0,Calm,Calm,-,N/A,,Clear,0,2013-01-07 15:35:00
9:55 AM,46.4,37.4,71,30.37,10.0,East,5.8,-,N/A,,Clear,100,2013-01-07 15:55:00
10:15 AM,48.2,37.4,66,30.37,10.0,East,4.6,-,N/A,,Clear,80,2013-01-07 16:15:00
10:35 AM,48.2,37.4,66,30.36,10.0,ENE,8.1,-,N/A,,Clear,70,2013-01-07 16:35:00
10:55 AM,48.2,37.4,66,30.35,10.0,East,5.8,-,N/A,,Clear,80,2013-01-07 16:55:00
11:15 AM,50.0,37.4,62,30.34,10.0,ESE,5.8,-,N/A,,Clear,110,2013-01-07 17:15:00
11:35 AM,51.8,35.6,54,30.34,10.0,ESE,6.9,-,N/A,,Partly Cloudy,110,2013-01-07 17:35:00
11:55 AM,51.8,33.8,50,30.32,10.0,Calm,Calm,-,N/A,,Clear,0,2013-01-07 17:55:00
12:15 PM,53.6,33.8,47,30.31,10.0,SSE,4.6,-,N/A,,Partly Cloudy,150,2013-01-07 18:15:00
12:35 PM,53.6,35.6,51,30.30,10.0,Calm,Calm,-,N/A,,Clear,0,2013-01-07 18:35:00
1:15 PM,53.6,33.8,47,30.26,10.0,NE,6.9,-,N/A,,Partly Cloudy,50,2013-01-07 19:15:00
1:35 PM,55.4,33.8,44,30.25,10.0,NE,3.5,-,N/A,,Partly Cloudy,40,2013-01-07 19:35:00
1:55 PM,55.4,33.8,44,30.25,10.0,SE,3.5,-,N/A,,Clear,130,2013-01-07 19:55:00
2:15 PM,55.4,35.6,47,30.23,10.0,Calm,Calm,-,N/A,,Clear,0,2013-01-07 20:15:00
2:55 PM,57.2,33.8,41,30.22,10.0,Calm,Calm,-,N/A,,Clear,0,2013-01-07 20:55:00
3:15 PM,57.2,35.6,44,30.22,10.0,Calm,Calm,-,N/A,,Clear,0,2013-01-07 21:15:00
3:35 PM,55.4,35.6,47,30.21,10.0,ENE,5.8,-,N/A,,Clear,70,2013-01-07 21:35:00
3:55 PM,55.4,35.6,47,30.21,10.0,East,3.5,-,N/A,,Clear,90,2013-01-07 21:55:00
4:15 PM,55.4,35.6,47,30.20,10.0,East,4.6,-,N/A,,Clear,80,2013-01-07 22:15:00
4:35 PM,53.6,37.4,54,30.20,10.0,East,4.6,-,N/A,,Clear,80,2013-01-07 22:35:00
5:15 PM,51.8,37.4,58,30.20,10.0,Calm,Calm,-,N/A,,Clear,0,2013-01-07 23:15:00
5:35 PM,51.8,37.4,58,30.20,10.0,Calm,Calm,-,N/A,,Clear,0,2013-01-07 23:35:00
5:55 PM,48.2,37.4,66,30.20,10.0,Calm,Calm,-,N/A,,Scattered Clouds,0,2013-01-07 23:55:00
6:15 PM,46.4,39.2,76,30.20,10.0,Calm,Calm,-,N/A,,Partly Cloudy,0,2013-01-08 00:15:00
6:35 PM,46.4,39.2,76,30.20,10.0,Calm,Calm,-,N/A,,Clear,0,2013-01-08 00:35:00
6:55 PM,46.4,39.2,76,30.19,10.0,Calm,Calm,-,N/A,,Clear,0,2013-01-08 00:55:00
7:15 PM,48.2,37.4,66,30.19,10.0,Calm,Calm,-,N/A,,Partly Cloudy,0,2013-01-08 01:15:00
7:35 PM,48.2,37.4,66,30.19,10.0,Calm,Calm,-,N/A,,Mostly Cloudy,0,2013-01-08 01:35:00
7:55 PM,48.2,37.4,66,30.19,10.0,Calm,Calm,-,N/A,,Overcast,0,2013-01-08 01:55:00
8:15 PM,50.0,37.4,62,30.20,10.0,Calm,Calm,-,N/A,,Overcast,0,2013-01-08 02:15:00
8:35 PM,48.2,39.2,71,30.19,10.0,ENE,4.6,-,N/A,,Mostly Cloudy,70,2013-01-08 02:35:00
8:55 PM,48.2,37.4,66,30.18,10.0,Calm,Calm,-,N/A,,Mostly Cloudy,0,2013-01-08 02:55:00
9:35 PM,48.2,37.4,66,30.18,10.0,Calm,Calm,-,N/A,,Scattered Clouds,0,2013-01-08 03:35:00
9:55 PM,48.2,37.4,66,30.16,10.0,ENE,5.8,-,N/A,,Scattered Clouds,70,2013-01-08 03:55:00
10:15 PM,48.2,37.4,66,30.16,10.0,Calm,Calm,-,N/A,,Scattered Clouds,0,2013-01-08 04:15:00
10:35 PM,48.2,37.4,66,30.15,10.0,East,6.9,-,N/A,,Partly Cloudy,80,2013-01-08 04:35:00
10:55 PM,48.2,37.4,66,30.16,10.0,Calm,Calm,-,N/A,,Clear,0,2013-01-08 04:55:00
11:15 PM,48.2,39.2,71,30.18,10.0,Calm,Calm,-,N/A,,Clear,0,2013-01-08 05:15:00
11:35 PM,46.4,39.2,76,30.18,10.0,Calm,Calm,-,N/A,,Scattered Clouds,0,2013-01-08 05:35:00
11:55 PM,44.6,39.2,81,30.17,10.0,Calm,Calm,-,N/A,,Scattered Clouds,0,2013-01-08 05:55:00